Weather History for Clermont County, Batavia, OH

Change the Weather History Date:

Saturday, May 18, 2013

  Actual Average (KLUK) Record (KLUK)
Temperature  
Mean Temperature 71 °F -  
Max Temperature 80 °F 76 °F 94 °F (1962)
Min Temperature 62 °F 54 °F 38 °F (1973)
Cooling Degree Days 6    
Growing Degree Days 21 (Base 50)    
Moisture  
Dew Point 65 °F    
Average Humidity 87    
Maximum Humidity 100    
Minimum Humidity 57    
Precipitation  
Precipitation 0.16 in - - ()
Sea Level Pressure  
Sea Level Pressure 30.03 in    
Wind  
Wind Speed 1 mph ()    
Max Wind Speed 7 mph    
Max Gust Speed -    
Visibility 6.7 miles    
Events      
Averages and records for this station are not official NWS values.
T = Trace of Precipitation, MM = Missing Value Source: Averaged Metar Reports

Daily Weather History Graph

Daily Weather History Graph

Search for Another Location

Airport:

Trip Planner

Search our weather history database for the weather conditions in past years. The results will help you decide how hot, cold, wet, or windy it might be!

Date:

Astronomy

May. 18, 2013 Rise Set
Actual Time 6:21 AM EDT 8:45 PM EDT
Civil Twilight 5:50 AM EDT 9:16 PM EDT
Nautical Twilight 5:13 AM EDT 9:54 PM EDT
Astronomical Twilight 4:31 AM EDT 10:35 PM EDT
Moon 1:51 PM EDT (5/18) 2:09 AM EDT (5/18)
Length of Visible Light 15h 25m
Length of Day
14h 24m
First Quarter, 55% of the Moon is Illuminated
May 18
First Quarter
May 25
Full
May 31
Last Quarter
Jun 8
New
Jun 16
First Quarter

Hourly Weather History & Observations

Time (EDT) Temp. Heat Index Dew Point Humidity Pressure Visibility Wind Dir Wind Speed Gust Speed Precip Events Conditions
12:18 AM 64.4 °F - 64.4 °F 100% 30.08 in 7.0 mi Calm Calm - 0.01 in   Overcast
12:37 AM 64.4 °F - 64.4 °F 100% 30.08 in 7.0 mi Calm Calm - 0.01 in   Overcast
12:57 AM 64.4 °F - 64.4 °F 100% 30.08 in 7.0 mi Calm Calm - 0.01 in   Mostly Cloudy
1:18 AM 64.4 °F - 64.4 °F 100% 30.07 in 4.0 mi Calm Calm - N/A   Overcast
1:30 AM 64.4 °F - 64.4 °F 100% 30.06 in 4.0 mi Calm Calm - N/A   Overcast
1:57 AM 64.4 °F - 64.4 °F 100% 30.05 in 3.0 mi Calm Calm - N/A   Mostly Cloudy
2:17 AM 64.4 °F - 62.6 °F 94% 30.04 in 5.0 mi Calm Calm - N/A   Mostly Cloudy
2:33 AM 64.4 °F - 62.6 °F 94% 30.04 in 7.0 mi Calm Calm - N/A   Scattered Clouds
2:57 AM 64.4 °F - 62.6 °F 94% 30.04 in 5.0 mi Calm Calm - N/A   Scattered Clouds
3:17 AM 64.4 °F - 62.6 °F 94% 30.04 in 4.0 mi Calm Calm - 0.01 in   Mostly Cloudy
3:37 AM 64.4 °F - 62.6 °F 94% 30.03 in 3.0 mi Calm Calm - 0.01 in   Mostly Cloudy
3:57 AM 64.4 °F - 62.6 °F 94% 30.03 in 2.0 mi Calm Calm - 0.01 in   Overcast
4:17 AM 64.4 °F - 62.6 °F 94% 30.04 in 1.0 mi Calm Calm - N/A   Overcast
4:37 AM 64.4 °F - 62.6 °F 94% 30.04 in 4.0 mi Calm Calm - N/A   Overcast
4:57 AM 64.4 °F - 64.4 °F 100% 30.05 in 5.0 mi Calm Calm - N/A   Overcast
5:17 AM 64.4 °F - 64.4 °F 100% 30.05 in 5.0 mi Calm Calm - N/A   Overcast
5:37 AM 64.4 °F - 64.4 °F 100% 30.05 in 5.0 mi Calm Calm - N/A   Overcast
5:57 AM 64.4 °F - 64.4 °F 100% 30.05 in 5.0 mi Calm Calm - N/A   Overcast
6:17 AM 64.4 °F - 62.6 °F 94% 30.05 in 3.0 mi Calm Calm - N/A   Overcast
6:37 AM 62.6 °F - 62.6 °F 100% 30.06 in 2.0 mi Calm Calm - N/A   Overcast
6:57 AM 62.6 °F - 62.6 °F 100% 30.06 in 3.0 mi Calm Calm - N/A   Overcast
7:17 AM 62.6 °F - 62.6 °F 100% 30.06 in 2.5 mi Calm Calm - N/A   Mostly Cloudy
7:37 AM 64.4 °F - 62.6 °F 94% 30.07 in 3.0 mi Calm Calm - N/A   Scattered Clouds
7:57 AM 64.4 °F - 64.4 °F 100% 30.07 in 7.0 mi Calm Calm - N/A   Mostly Cloudy
8:17 AM 64.4 °F - 64.4 °F 100% 30.07 in 7.0 mi Calm Calm - N/A   Overcast
8:37 AM 64.4 °F - 64.4 °F 100% 30.08 in 7.0 mi Calm Calm - N/A   Overcast
8:57 AM 66.2 °F - 64.4 °F 94% 30.08 in 10.0 mi Calm Calm - N/A   Overcast
9:17 AM 68.0 °F - 64.4 °F 88% 30.07 in 7.0 mi Calm Calm - N/A   Mostly Cloudy
9:37 AM 68.0 °F - 64.4 °F 88% 30.07 in 10.0 mi Calm Calm - N/A   Mostly Cloudy
9:57 AM 68.0 °F - 64.4 °F 88% 30.07 in 10.0 mi Calm Calm - N/A   Overcast
10:17 AM 69.8 °F - 64.4 °F 83% 30.08 in 10.0 mi East 3.5 mph - N/A   Scattered Clouds
10:37 AM 69.8 °F - 64.4 °F 83% 30.07 in 10.0 mi Calm Calm - N/A   Scattered Clouds
10:57 AM 71.6 °F - 64.4 °F 78% 30.07 in 10.0 mi ENE 4.6 mph - N/A   Scattered Clouds
11:17 AM 71.6 °F - 62.6 °F 73% 30.07 in 10.0 mi East 5.8 mph - N/A   Overcast
11:37 AM 71.6 °F - 62.6 °F 73% 30.07 in 10.0 mi SE 3.5 mph - N/A   Overcast
11:57 AM 73.4 °F - 62.6 °F 69% 30.06 in 10.0 mi SE 3.5 mph - N/A   Overcast
12:17 PM 75.2 °F - 64.4 °F 69% 30.06 in 10.0 mi East 5.8 mph - N/A   Mostly Cloudy
12:37 PM 75.2 °F - 64.4 °F 69% 30.05 in 10.0 mi South 3.5 mph - N/A   Mostly Cloudy
12:58 PM 75.2 °F - 62.6 °F 65% 30.05 in 10.0 mi ESE 4.6 mph - N/A   Overcast
1:17 PM 77.0 °F - 64.4 °F 65% 30.04 in 10.0 mi East 3.5 mph - N/A   Mostly Cloudy
1:37 PM 77.0 °F - 64.4 °F 65% 30.03 in 10.0 mi Calm Calm - N/A   Mostly Cloudy
1:58 PM 78.8 °F - 62.6 °F 57% 30.03 in 10.0 mi ESE 5.8 mph - N/A   Mostly Cloudy
2:17 PM 78.8 °F - 62.6 °F 57% 30.02 in 10.0 mi East 5.8 mph - N/A   Mostly Cloudy
2:37 PM 80.6 °F 82.3 °F 64.4 °F 58% 30.01 in 10.0 mi Calm Calm - N/A   Mostly Cloudy
3:17 PM 77.0 °F - 62.6 °F 61% 30.01 in 10.0 mi SE 4.6 mph - N/A   Overcast
3:37 PM 77.0 °F - 62.6 °F 61% 30.01 in 10.0 mi Calm Calm - N/A   Overcast
3:57 PM 77.0 °F - 64.4 °F 65% 30.00 in 10.0 mi West 6.9 mph - N/A   Overcast
4:17 PM 73.4 °F - 62.6 °F 69% 30.00 in 10.0 mi Calm Calm - N/A   Overcast
4:37 PM 75.2 °F - 64.4 °F 69% 30.00 in 10.0 mi Calm Calm - N/A   Mostly Cloudy
4:57 PM 73.4 °F - 66.2 °F 78% 29.99 in 10.0 mi WNW 4.6 mph - N/A   Scattered Clouds
5:17 PM 73.4 °F - 68.0 °F 83% 29.99 in 7.0 mi NW 3.5 mph - N/A   Mostly Cloudy
5:37 PM 73.4 °F - 68.0 °F 83% 29.99 in 10.0 mi NW 4.6 mph - N/A   Overcast
5:57 PM 73.4 °F - 66.2 °F 78% 29.99 in 10.0 mi Calm Calm - N/A   Overcast
6:17 PM 73.4 °F - 64.4 °F 73% 29.99 in 10.0 mi NNE 4.6 mph - N/A   Mostly Cloudy
6:37 PM 73.4 °F - 64.4 °F 73% 29.99 in 10.0 mi Calm Calm - N/A   Mostly Cloudy
6:57 PM 71.6 °F - 66.2 °F 83% 30.00 in 10.0 mi South 4.6 mph - N/A   Overcast
7:17 PM 69.8 °F - 64.4 °F 83% 30.01 in 2.0 mi South 3.5 mph - 0.11 in   Overcast
7:37 PM 69.8 °F - 68.0 °F 94% 30.01 in 4.0 mi Calm Calm - 0.13 in   Overcast
7:57 PM 69.8 °F - 68.0 °F 94% 30.00 in 5.0 mi Calm Calm - 0.13 in   Overcast
8:17 PM 69.8 °F - 68.0 °F 94% 30.00 in 7.0 mi Calm Calm - 0.01 in   Overcast
8:37 PM 69.8 °F - 68.0 °F 94% 29.99 in 10.0 mi Calm Calm - 0.01 in   Scattered Clouds
8:57 PM 69.8 °F - 68.0 °F 94% 30.00 in 7.0 mi Calm Calm - 0.01 in   Scattered Clouds
9:17 PM 68.0 °F - 68.0 °F 100% 30.00 in 5.0 mi Calm Calm - N/A   Scattered Clouds
9:37 PM 68.0 °F - 68.0 °F 100% 30.00 in 2.0 mi Calm Calm - N/A   Overcast
9:57 PM 68.0 °F - 68.0 °F 100% 30.00 in 1.5 mi Calm Calm - N/A   Mostly Cloudy
10:17 PM 68.0 °F - 68.0 °F 100% 30.01 in 0.5 mi Calm Calm - N/A   Overcast
10:38 PM 68.0 °F - 66.2 °F 94% 30.01 in 4.0 mi Calm Calm - N/A   Scattered Clouds
10:57 PM 68.0 °F - 66.2 °F 94% 30.01 in 4.0 mi Calm Calm - N/A   Clear
11:17 PM 68.0 °F - 66.2 °F 94% 30.01 in 5.0 mi Calm Calm - N/A   Clear
11:38 PM 66.2 °F - 66.2 °F 100% 30.01 in 2.5 mi Calm Calm - N/A   Scattered Clouds
11:57 PM 66.2 °F - 66.2 °F 100% 30.01 in 5.0 mi Calm Calm - N/A   Mostly Cloudy